Regional Weather Roundup
Issued by NWS

Home | Current Version | Previous Version | Graphics & Text | Print | Product List | Glossary On
Versions: 1 2 3 4 5 6 7 8 9 10 11 12 13 14 15 16 17 18 19 20 21 22 23 24 25 26 27 28 29 30 31 32 33 34 35 36 37 38 39 40 41 42 43 44 45 46 47 48 49 50
000
ASUS43 KIND 231009
RWRIN

WEATHER ROUNDUP FOR INDIANA
NATIONAL WEATHER SERVICE INDIANAPOLIS IN
500 AM EST THU NOV 23 2017

NOTE: "FAIR" INDICATES FEW OR NO CLOUDS BELOW 12,000 FEET WITH NO
SIGNIFICANT WEATHER AND/OR OBSTRUCTIONS TO VISIBILITY.

* - STATION DOES NOT REPORT WEATHER SUCH AS PRECIPITATION OR FOG.

+ - STATION NOT QUALITY CONTROLLED BY THE NATIONAL WEATHER SERVICE.
    USE DATA WITH CAUTION...ESPECIALLY DEWPOINT AND RELATIVE
    HUMIDITY OBSERVATIONS.

INZ001>003-010>013-019-020-231100-
NORTHWEST INDIANA

CITY           SKY/WX    TMP DP  RH WIND       PRES   REMARKS
KNOX *+        CLOUDY    32  23  69 S5        30.13F WCI  27
LA PORTE +     CLOUDY    30  22  70 SW7       30.12F WCI  23
MICHIGAN CITY+ CLOUDY    32  21  64 S7        30.12F WCI  26
MONTICELLO +   CLOUDY    30  24  78 S3        30.14F
RENSSELAER +   CLOUDY    32  23  69 S8        30.13F WCI  25
VALPARAISO     CLOUDY    32  22  66 SW8       30.12F WCI  25

$$

LMZ046-743>745-231100-
SOUTHERN LAKE MICHIGAN

STATION/POSITION TIME  TEMP    WIND        PRES    WAVE
                       AIR SEA DIR/SP/G            HT
                 (UTC) (F)     (DEG/KT/KT) (MB)    (FT)
BURNS HARBOR     0940   32     190/ 10/ 13 1020.3F
MICHIGAN CITY    0940   31     190/ 11/ 13   N/A

$$

INZ004-005-014>016-021>024-231100-
NORTH CENTRAL INDIANA

CITY           SKY/WX    TMP DP  RH WIND       PRES   REMARKS
GOSHEN         MOCLDY    30  20  66 SW8       30.12F WCI  22
LOGANSPORT +   CLOUDY    30  27  86 S6        30.16F WCI  24
PERU/GRISSOM   CLOUDY    30  27  90 S6        30.14F WCI  24
ROCHESTER +    CLOUDY    32  27  80 S3        30.14F
SOUTH BEND     CLOUDY    29  21  72 SW7       30.12F WCI  22
WARSAW +       CLOUDY    30  23  74 SW3       30.13F

$$

INZ006>009-017-018-025>027-231100-
NORTHEAST INDIANA

CITY           SKY/WX    TMP DP  RH WIND       PRES   REMARKS
AUBURN +       CLOUDY    30  25  80 CALM      30.15F
FORT WAYNE     CLOUDY    31  26  82 S6        30.15F WCI  25
HUNTINGTON +   CLOUDY    30  26  84 S3        30.15F
KENDALLVILLE + MOCLDY    29  23  78 SW6       30.12F WCI  23

$$

INZ028-029-035-036-043>045-051>053-231100-
WEST CENTRAL INDIANA

CITY           SKY/WX    TMP DP  RH WIND       PRES   REMARKS
CRAWFORDSVL +  MOCLDY    26  26 100 CALM        N/A
GREENCASTLE +  CLOUDY    30  27  86 CALM      30.17F
LAFAYETTE      CLOUDY    29  25  85 S3        30.16F
TERRE HAUTE    CLOUDY    27  24  89 S3        30.18F

$$

INZ030>032-037>040-046>048-054>057-064-065-231100-
CENTRAL INDIANA

CITY           SKY/WX    TMP DP  RH WIND       PRES   REMARKS
CP ATTERBURY + CLOUDY    28  27  93 CALM      30.19F
FISHERS *+     CLOUDY    28  27  93 S3        30.17F
FRANKFORT +    CLOUDY    32  28  85 SW3       30.17F
GREENWOOD *+   CLOUDY    33  27  80 S3        30.18F
INDIANAPOLIS   CLOUDY    30  25  81 S6        30.17F WCI  24
-EAGLE CREEK   CLOUDY    31  24  75 S3        30.16F
KOKOMO +       CLOUDY    31  26  82 S6        30.16F WCI  25
MARION +       CLOUDY    30  26  86 S3        30.16F
MT COMFORT *+  CLOUDY    28  27  93 S3        30.17F
SHELBYVILLE    CLOUDY    30  24  78 S6        30.18F WCI  24
ZIONSVILLE +   CLOUDY    29  25  86 S3        30.16F

$$

INZ033-034-041-042-049-050-058-059-231100-
EAST CENTRAL INDIANA

CITY           SKY/WX    TMP DP  RH WIND       PRES   REMARKS
MUNCIE         CLOUDY    31  24  75 S6        30.16F WCI  25
RICHMOND +     PTCLDY    25  23  93 CALM      30.18R

$$

INZ060-061-067>069-081>083-085>088-231100-
SOUTHWEST INDIANA

CITY           SKY/WX    TMP DP  RH WIND       PRES   REMARKS
EVANSVILLE     PTCLDY    29  26  89 CALM      30.22F
HUNTINGBURG +  MOCLDY    25  24  96 CALM      30.21F
WASHINGTON +   CLOUDY    28  26  94 CALM      30.20S

$$

INZ062-063-066-070>080-084-089>092-231100-
SOUTH CENTRAL AND SOUTHEAST INDIANA

CITY           SKY/WX    TMP DP  RH WIND       PRES   REMARKS
BEDFORD +      PTCLDY    28  25  86 CALM      30.19F
BLOOMINGTON    CLOUDY    28  23  81 CALM      30.18F
MADISON *+     PTCLDY    27  25  93 CALM      30.21F
NORTH VERNON + MOCLDY    25  23  93 CALM      30.20F
SEYMOUR +      MOCLDY    27  23  86 CALM      30.20F

$$





USA.gov is the U.S. government's official web portal to all federal, state and local government web resources and services.